Station FRWL1 - 8766072 - Freshwater Canal Locks, LA Image indicating link to RSS feed of recent meteorological observations for station FRWL1


Conditions at FRWL1 as of
(5:18 am CDT)
1018 GMT on 08/31/2026:
     

Click on the graph icon in the table below to see a time series plot of the last five days of that observation.

5-day plot - Wind Direction Wind Direction (WDIR): N ( 10 deg true )
5-day plot - Wind Speed Wind Speed (WSPD): 4.1 kts
5-day plot - Wind Gust Wind Gust (GST): 6.0 kts
5-day plot - Atmospheric Pressure Atmospheric Pressure (PRES):29.95 in
5-day plot - Water Temperature Water Temperature (WTMP): 91.2 °F
5-day plot -  Wind Speed, Wind Gust and Atmospheric Pressure Combined plot of Wind Speed, Gust, and Air Pressure
NOS Water Level Observation Network Water Level
Previous observations
TIME
(CDT)
5-day plot - Wind Direction
WDIR
 
5-day plot - Wind Speed
WSPD
kts
5-day plot - Wind Gust
GST
kts
5-day plot - Wave Height
WVHT
ft
5-day plot - Dominant Wave Period
DPD
sec
5-day plot - Average Wave Period
APD
sec
5-day plot - Mean Wave Direction
MWD
 
5-day plot - Atmospheric Pressure
PRES
in
5-day plot - Pressure Tendency
PTDY
in
5-day plot - Air Temperature
ATMP
°F
5-day plot - Water Temperature
WTMP
°F
5-day plot - Dew Point
DEWP
°F
5-day plot - Salinity
SAL
psu
5-day plot - Visibility
VIS
nmi
5-day plot - Tide (above MLLW)
TIDE
ft
2026-08-31 05:12 am N 4.1 5.1----29.95-- 91.2----
2026-08-31 05:06 amNNE 4.1 6.0----29.95-- 91.2----
2026-08-31 05:00 amNNE 5.1 7.0----29.95-0.02 78.8 91.2----
2026-08-31 04:54 amNNE 6.0 7.0----29.95- 78.8 91.2----
2026-08-31 04:48 amNNE 5.1 6.0----29.95- 79.2 91.2----
2026-08-31 04:42 amNNE 5.1 6.0----29.95- 79.2 91.2----
2026-08-31 04:36 amNNE 5.1 6.0----29.95- 79.0 91.4----
2026-08-31 04:30 amNNE 5.1 6.0----29.95- 79.0 91.2----
2026-08-31 04:24 amNNE 6.0 7.0----29.95- 78.8 91.4----
2026-08-31 04:18 amNNE 5.1 7.0----29.95-- 91.4----
2026-08-31 04:12 amNNE 5.1 7.0----29.95-- 91.4----
2026-08-31 04:06 amNNE 4.1 5.1----29.95-- 91.4----
2026-08-31 04:00 amNNE 4.1 5.1----29.95-0.03 79.0 91.4----
2026-08-31 03:54 amNNE 4.1 5.1----29.95- 79.3 91.4----
2026-08-31 03:48 am N 4.1 5.1----29.95- 79.3 91.4----
2026-08-31 03:42 am N 2.9 5.1----29.95- 79.5 91.2----
2026-08-31 03:36 amNNE 4.1 5.1----29.95- 79.5 91.2----
2026-08-31 03:30 amNNE 2.9 5.1----29.95- 79.5 91.4----
2026-08-31 03:24 am NE 4.1 5.1----29.96- 79.3 91.4----
2026-08-31 03:18 amNNE 4.1 6.0----29.95-- 91.4----
2026-08-31 03:12 amNNE 4.1 5.1----29.96-- 91.4----
2026-08-31 03:06 amNNE 4.1 5.1----29.96-- 91.4----
2026-08-31 03:00 amNNE 4.1 5.1----29.96-0.03 79.3 91.4----
2026-08-31 02:54 amNNE 4.1 6.0----29.96- 79.3 91.4----
2026-08-31 02:48 amNNE 4.1 6.0----29.96- 79.5 91.4----
2026-08-31 02:42 amNNE 5.1 6.0----29.96- 79.3 91.4----
2026-08-31 02:36 amNNE 5.1 6.0----29.96- 79.5 91.4----
2026-08-31 02:30 amNNE 5.1 6.0----29.96- 79.9 91.4----
2026-08-31 02:24 amNNE 5.1 6.0----29.96- 80.2 91.6----
2026-08-31 02:18 amNNE 4.1 5.1----29.96- 80.2 91.6----
2026-08-31 02:12 amNNE 4.1 6.0----29.96- 80.6 91.6----
2026-08-31 02:06 am NE 4.1 5.1----29.97- 81.0 91.6----
2026-08-31 02:00 am NE 4.1 6.0----29.97-0.03 81.1 91.6----
2026-08-31 01:54 am NE 4.1 7.0----29.97- 81.3 91.6----
2026-08-31 01:48 am NE 5.1 7.0----29.97- 81.5 91.6----
2026-08-31 01:42 amENE 5.1 7.0----29.97- 81.7 91.8----
2026-08-31 01:36 amENE 5.1 7.0----29.97- 81.7 91.8----
2026-08-31 01:30 amENE 6.0 8.0----29.97-- 91.8----
2026-08-31 01:24 amENE 6.0 8.0----29.97-- 91.8----
2026-08-31 01:18 am--------- 82.0-----
2026-08-31 01:12 am--------- 81.9-----
2026-08-31 01:06 am--------- 82.0-----
2026-08-31 01:00 amENE 6.0 8.0----29.98+0.00 82.0 91.6----
2026-08-31 12:54 amENE 5.1 7.0----29.98- 81.9 91.4----
2026-08-31 12:48 amENE 4.1 6.0----29.98- 81.9 91.6----
2026-08-31 12:42 am NE 5.1 7.0----29.98- 81.9 91.4----
2026-08-31 12:36 am NE 5.1 6.0----29.98- 81.9 91.2----
2026-08-31 12:30 am NE 4.1 7.0----29.98- 82.0 91.2----
2026-08-31 12:24 amENE 4.1 7.0----29.98- 82.2 91.2----
2026-08-31 12:18 amENE 4.1 6.0----29.98-- 91.2----
2026-08-31 12:12 amENE 4.1 7.0----29.98-- 91.2----
2026-08-31 12:06 amENE 5.1 8.0----29.98-- 91.2----
2026-08-31 12:00 amENE 5.1 7.0----29.98+0.02 82.2 91.2----
2026-08-30 11:54 pmENE 6.0 8.0----29.98- 82.4 91.2----
2026-08-30 11:48 pm NE 6.0 8.0----29.99- 82.4 91.2----
2026-08-30 11:42 pmENE 6.0 8.9----29.99- 82.6 91.2----
2026-08-30 11:36 pmENE 7.0 8.9----29.99- 82.4 91.2----
2026-08-30 11:30 pmENE 7.0 8.9----29.99- 82.6 91.2----
2026-08-30 11:24 pmENE 7.0 8.9----29.99- 82.6 91.2----
2026-08-30 11:18 pmENE 6.0 8.0----30.00- 82.8 91.2----
2026-08-30 11:12 pmENE 6.0 8.9----30.00- 82.9 91.2----
2026-08-30 11:06 pmENE 7.0 9.9----30.00- 82.9 91.2----
2026-08-30 11:00 pmENE 7.0 8.9----30.00+0.05 82.9 91.2----
2026-08-30 10:54 pmENE 7.0 9.9----30.00- 83.1 91.2----
2026-08-30 10:48 pmENE 7.0 9.9----29.99- 83.3 91.2----
2026-08-30 10:42 pmENE 7.0 11.1----29.99- 83.3 91.2----
2026-08-30 10:36 pmENE 8.0 9.9----29.99- 83.7 91.2----
2026-08-30 10:30 pmENE 6.0 11.1----29.99- 83.7 91.0----
2026-08-30 10:24 pmENE 7.0 8.9----29.99- 83.7 91.0----
2026-08-30 10:18 pmENE 7.0 9.9----29.98- 83.8 91.0----
2026-08-30 10:12 pmENE 7.0 9.9----29.98- 84.0 91.2----
2026-08-30 10:06 pmENE 7.0 12.0----29.98- 84.0 91.0----
2026-08-30 10:00 pmENE 7.0 11.1----29.98+0.04 84.2 91.0----
2026-08-30 09:54 pmENE 7.0 11.1----29.98- 84.2 91.0----
2026-08-30 09:48 pmENE 7.0 9.9----29.98- 84.4 91.0----
2026-08-30 09:42 pmENE 8.0 12.0----29.98- 84.4 91.0----
2026-08-30 09:36 pmENE 7.0 12.0----29.98- 84.4 91.0----
2026-08-30 09:30 pmENE 9.9 14.0----29.97- 84.6 91.0----
2026-08-30 09:24 pmENE 8.9 11.1----29.97- 84.4 90.9----
2026-08-30 09:18 pmENE 5.1 8.9----29.97-- 90.9----
2026-08-30 09:12 pmENE 7.0 9.9----29.97-- 90.9----
2026-08-30 09:06 pmENE 7.0 12.0----29.96-- 90.9----
2026-08-30 09:00 pmENE 8.9 13.0----29.96+0.03 84.7 90.9----
2026-08-30 08:54 pmENE 8.0 12.0----29.96- 84.7 90.9----
2026-08-30 08:48 pmENE 7.0 11.1----29.96- 84.7 90.9----
2026-08-30 08:42 pm E 8.0 11.1----29.96- 84.9 90.9----
2026-08-30 08:36 pm E 8.0 12.0----29.95- 85.1 90.9----
2026-08-30 08:30 pmENE 8.0 13.0----29.95- 85.1 90.9----
2026-08-30 08:24 pmENE 8.0 11.1----29.95- 84.9 90.9----
2026-08-30 08:18 pmENE 7.0 9.9----29.95- 85.1 90.9----
2026-08-30 08:12 pmENE 7.0 11.1----29.95- 85.1 90.9----
2026-08-30 08:06 pm E 7.0 12.0----29.94- 85.1 90.7----
2026-08-30 08:00 pm E 8.0 11.1----29.94+0.00 85.1 90.7----
2026-08-30 07:54 pm E 7.0 9.9----29.94- 85.1 90.7----
2026-08-30 07:48 pm E 8.0 12.0----29.94-- 90.7----
2026-08-30 07:42 pm E 7.0 8.9----29.94-- 90.7----
2026-08-30 07:36 pm E 8.9 13.0----29.94-- 90.7----
2026-08-30 07:30 pm E 8.9 13.0----29.94- 85.6 90.7----
2026-08-30 07:24 pm E 8.9 12.0----29.94- 85.8 90.7----
2026-08-30 07:18 pm E 7.0 11.1----29.94-- 90.7----
2026-08-30 07:12 pm E 8.0 12.0----29.94-- 90.7----
2026-08-30 07:06 pm E 8.9 13.0----29.94-- 90.5----
2026-08-30 07:00 pm E 8.0 12.0----29.94+0.00- 90.5----
2026-08-30 06:54 pm E 8.9 13.0----29.94-- 90.5----
2026-08-30 06:48 pm E 7.0 12.0----29.94-- 90.5----
2026-08-30 06:42 pm E 8.0 9.9----29.94-- 90.5----
2026-08-30 06:36 pm E 7.0 14.0----29.94-- 90.5----
2026-08-30 06:30 pm E 9.9 15.0----29.93- 86.7 90.5----
2026-08-30 06:24 pm E 9.9 13.0----29.93- 87.1 90.5----
2026-08-30 06:18 pm E 8.9 13.0----29.93-- 90.5----
2026-08-30 06:12 pm E 8.0 13.0----29.93-- 90.5----
2026-08-30 06:06 pm E 9.9 13.0----29.93-- 90.3----
2026-08-30 06:00 pm E 8.0 12.0----29.93-0.03 87.3 90.5----
2026-08-30 05:54 pm E 11.1 14.0----29.93- 87.3 90.5----
2026-08-30 05:48 pm E 9.9 12.0----29.93- 87.3 90.3----
2026-08-30 05:42 pm E 12.0 15.0----29.93- 87.3 90.3----
2026-08-30 05:36 pm E 9.9 14.0----29.93- 87.4 90.3----
2026-08-30 05:30 pm E 13.0 18.1----29.94- 87.3 90.3----
2026-08-30 05:24 pm E 13.0 18.1----29.94- 87.4 90.3----
2026-08-30 05:18 pm E 13.0 17.1----29.93-- 90.5----
2026-08-30 05:12 pm E 14.0 18.1----29.93-- 90.3----
2026-08-30 05:06 pm E 14.0 18.1----29.93-- 90.3----
2026-08-30 05:00 pm E 11.1 18.1----29.94-0.05 87.6 90.1----
2026-08-30 04:54 pm E 14.0 18.1----29.93- 87.4 90.1----
2026-08-30 04:48 pm E 14.0 18.1----29.94- 87.8 90.1----
2026-08-30 04:42 pm E 15.9 19.0----29.93- 88.5 90.1----
2026-08-30 04:36 pm E 15.0 19.0----29.93- 89.8 90.1----
2026-08-30 04:30 pmENE 9.9 14.0----29.93- 90.9 90.1----
2026-08-30 04:24 pmENE 9.9 13.0----29.94- 91.0 90.1----
2026-08-30 04:18 pm E 5.1 8.9----29.94-- 90.1----
2026-08-30 04:12 pm NE 6.0 13.0----29.94-- 90.1----
2026-08-30 04:06 pm NE 5.1 8.9----29.94-- 90.1----
2026-08-30 04:00 pmENE 6.0 9.9----29.94-0.06 90.5 90.1----
2026-08-30 03:54 pmENE 5.1 8.9----29.94- 90.9 90.1----
2026-08-30 03:48 pmNNE 8.9 12.0----29.95- 91.6 90.1----
2026-08-30 03:42 pm E 1.9 6.0----29.95- 92.5 90.1----
2026-08-30 03:36 pm N 7.0 11.1----29.95- 91.6 90.1----
2026-08-30 03:30 pmNNE 6.0 9.9----29.95- 91.4 90.3----
2026-08-30 03:24 pmENE 6.0 8.9----29.95- 90.7 90.1----
2026-08-30 03:18 pm E 6.0 11.1----29.95-- 90.1----
2026-08-30 03:12 pm SE 4.1 8.9----29.96-- 90.1----
2026-08-30 03:06 pmESE 7.0 9.9----29.96-- 90.1----
2026-08-30 03:00 pm E 7.0 12.0----29.96-0.06 89.6 90.1----
2026-08-30 02:54 pm E 8.9 13.0----29.96- 89.8 90.1----
2026-08-30 02:48 pmESE 7.0 11.1----29.97- 90.1 90.1----
2026-08-30 02:42 pm E 7.0 11.1----29.97- 89.4 90.3----
2026-08-30 02:36 pm NE 7.0 8.9----29.98- 90.5 90.1----
2026-08-30 02:30 pm NE 5.1 13.0----29.98- 90.5 90.1----
2026-08-30 02:24 pm N 5.1 9.9----29.98- 90.9 90.3----
2026-08-30 02:18 pm N 5.1 9.9----29.98-- 90.3----
2026-08-30 02:12 pm NE 6.0 8.0----29.98-- 90.1----
2026-08-30 02:06 pm N 5.1 8.9----29.99-- 90.3----
2026-08-30 02:00 pmNNE 6.0 8.9----29.99-0.05 90.9 90.3----
2026-08-30 01:54 pmENE 5.1 9.9----29.99- 91.0 90.3----
2026-08-30 01:48 pm N 4.1 7.0----29.99- 90.9 90.3----
2026-08-30 01:42 pmNNE 5.1 8.9----29.99- 90.7 90.3----
2026-08-30 01:36 pm N 1.9 6.0----30.00- 90.0 90.3----
2026-08-30 01:30 pmNNW 5.1 8.9----30.00- 90.0 90.3----
2026-08-30 01:24 pmNNW 8.0 9.9----30.00- 90.1 90.3----
2026-08-30 01:18 pm N 6.0 8.0----30.00-- 90.3----
2026-08-30 01:12 pmNNW 7.0 8.9----30.00-- 90.3----
2026-08-30 01:06 pm NW 6.0 8.0----30.00-- 90.3----
2026-08-30 01:00 pm N 5.1 8.0----30.01-0.02 89.8 90.3----
2026-08-30 12:54 pm NW 8.9 11.1----30.01- 89.8 90.3----
2026-08-30 12:48 pmNNE 4.1 8.9----30.01- 90.0 90.3----
2026-08-30 12:42 pmNNW 6.0 8.9----30.01- 89.6 90.3----
2026-08-30 12:36 pmNNE 6.0 12.0----30.02- 89.8 90.3----
2026-08-30 12:30 pmNNW 6.0 11.1----30.02- 89.2 90.3----
2026-08-30 12:24 pmNNW 5.1 9.9----30.02- 88.9 90.3----
2026-08-30 12:18 pmNNW 6.0 12.0----30.02- 88.7 90.3----
2026-08-30 12:12 pm N 7.0 9.9----30.02- 89.2 90.3----
2026-08-30 12:06 pmNNE 7.0 9.9----30.03- 89.1 90.3----
2026-08-30 12:00 pm N 8.0 13.0----30.03+0.00 89.1 90.3----
2026-08-30 11:54 am N 6.0 9.9----30.03- 88.5 90.3----
2026-08-30 11:48 amNNE 6.0 11.1----30.03- 88.2 90.3----
2026-08-30 11:42 am N 6.0 9.9----30.03- 88.3 90.3----
2026-08-30 11:36 am N 7.0 8.9----30.03- 88.5 90.3----
2026-08-30 11:30 amNNE 8.0 8.9----30.04- 88.3 90.3----
2026-08-30 11:24 am N 6.0 11.1----30.04- 87.6 90.3----
2026-08-30 11:18 amNNW 8.0 9.9----30.04- 87.6 90.3----
2026-08-30 11:12 am NW 8.0 9.9----30.04- 86.7 90.3----
2026-08-30 11:06 amNNW 8.0 11.1----30.04- 86.5 90.3----
2026-08-30 11:00 amNNW 7.0 12.0----30.04+0.02 86.7 90.5----
2026-08-30 10:54 am N 6.0 11.1----30.04- 86.2 90.3----
2026-08-30 10:48 am N 8.0 11.1----30.04-- 90.3----
2026-08-30 10:42 am N 8.0 11.1----30.04-- 90.3----
2026-08-30 10:36 am N 8.0 11.1----30.04-- 90.3----
2026-08-30 10:30 am N 8.0 11.1----30.03- 85.8 90.3----
2026-08-30 10:24 am N 8.9 12.0----30.03- 85.6 90.3----
2026-08-30 10:18 am N 8.9 12.0----30.03-- 90.3----
2026-08-30 10:12 am N 8.0 11.1----30.03-- 90.3----
2026-08-30 10:06 amNNW 8.9 11.1----30.03-- 90.5----
2026-08-30 10:00 am N 8.9 12.0----30.03+0.03 84.9 90.5----
2026-08-30 09:54 amNNW 8.9 12.0----30.03- 84.7 90.5----
2026-08-30 09:48 amNNW 8.9 11.1----30.03- 84.6 90.5----
2026-08-30 09:42 amNNW 8.0 9.9----30.03- 84.6 90.5----
2026-08-30 09:36 amNNW 8.0 11.1----30.03- 84.2 90.5----
2026-08-30 09:30 amNNW 7.0 9.9----30.03- 84.0 90.5----
2026-08-30 09:24 amNNW 7.0 8.9----30.03- 84.0 90.5----
2026-08-30 09:18 am N 6.0 8.9----30.03-- 90.5----
2026-08-30 09:12 am N 6.0 8.0----30.03-- 90.5----
2026-08-30 09:06 am N 6.0 8.0----30.03-- 90.5----
2026-08-30 09:00 am N 5.1 6.0----30.03+0.04 83.3 90.5----
2026-08-30 08:54 am N 5.1 7.0----30.03- 82.8 90.5----
2026-08-30 08:48 am N 4.1 7.0----30.03- 82.8 90.5----
2026-08-30 08:42 am N 5.1 8.0----30.03- 82.2 90.5----
2026-08-30 08:36 am N 5.1 8.0----30.02- 81.9 90.5----
2026-08-30 08:30 am N 6.0 8.0----30.02- 81.5 90.5----
2026-08-30 08:24 am N 7.0 8.0----30.02- 81.3 90.5----
2026-08-30 08:18 am N 6.0 8.9----30.02-- 90.5----
2026-08-30 08:12 am N 5.1 7.0----30.02-- 90.5----
2026-08-30 08:06 amNNW 6.0 8.0----30.02-- 90.5----
2026-08-30 08:00 am N 6.0 8.0----30.02+0.04 81.1 90.3----
2026-08-30 07:54 amNNW 6.0 7.0----30.02- 81.1 90.3----
2026-08-30 07:48 amNNW 6.0 8.0----30.01- 80.6 90.5----
2026-08-30 07:42 amNNW 6.0 7.0----30.01- 80.6 90.5----
2026-08-30 07:36 amNNW 5.1 8.0----30.01- 80.6 90.5----
2026-08-30 07:30 amNNW 6.0 8.0----30.01- 80.4 90.3----
2026-08-30 07:24 amNNW 2.9 6.0----30.01- 81.0 90.5----
2026-08-30 07:18 am N 5.1 6.0----30.01-- 90.5----
2026-08-30 07:12 am N 5.1 6.0----30.01-- 90.5----
2026-08-30 07:06 am N 4.1 5.1----30.01-- 90.5----
2026-08-30 07:00 am-------30.00+0.02 79.0 90.5----
2026-08-30 06:54 am-------30.00- 79.0 90.5----
2026-08-30 06:48 am N 4.1 5.1----30.00-------
2026-08-30 06:42 am N 4.1 5.1----30.00-------
2026-08-30 06:36 am N 4.1 5.1----30.00-------
2026-08-30 06:30 am N 1.9 2.9----30.00-- 90.5----
2026-08-30 06:24 am N 2.9 4.1----29.99-- 90.5----
2026-08-30 06:18 amNNW 2.9 5.1----29.99-- 90.7----
2026-08-30 06:12 am N 4.1 5.1----29.99-- 90.5----
2026-08-30 06:06 am N 5.1 5.1----29.99-- 90.5----
2026-08-30 06:00 am N 2.9 4.1----29.99+0.01 78.4 90.7----
2026-08-30 05:54 am N 4.1 5.1----29.99- 78.1 90.7----